Volver al catálogo

COSMOS 249 DEB

ActivoLEO
NORAD 3583·DEBRIS·🇷🇺 Russia

Lanzado Oct 20, 1968 desde Baikonur Cosmodrome

Loading…

Próximos Pases (próximas 24 horas)

TLE

ActualizadoSource: Space-Track

Época: Sep 13, 2026, 11:12 UTC

1 03583U 68091R   26256.46719607  .00000147  00000-0  32356-3 0  9998
2 03583  62.0820 306.6610 0696371 166.4727 195.6033 12.85998607695570

Sigue COSMOS 249 DEB en tiempo real con AllMySat

Download on the App Store